CAPE
2507 2432 2455 2372 2211 1000 731 1462 1918 1707 1633 1773 1951 2531 2732 2602 2532 3022 2708 2360 2133 2543 1912 1689 2328 2326 2214 1730 1694 1432 1191 1165 986 528 501 891 1900 1883 1459 2218 2328 2296 1851
3201 1902 1158 1428 1867 1796 1932 1994 2248 2337 2085 2349 2238 1928 2362 2735 2635 2570 2616 2094 2337 2293 2266 2306 1796 2651 2323 1930 2163 2220 2332 1904 1239 1766 1500 778 1550 1376 1888 2600 2044 1140 1261
1392 974 1080 1008 387 187 281 91 321 863 1793 2303 2703 2738 2519 2469 2725 2569 2562 2581 2360 1915 2504 2647 2179 2543 2477 2385 1835 1264 1480 2768 1914 1702 1311 1185 1163 1238 1712 2217 2076 2061 1747
500 128 193 252 148 130 260 450 325 403 685 986 1591 2195 2548 2344 2502 2507 2416 2605 2569 2208 2465 2599 2479 2426 2556 2815 2175 2520 1997 1713 1975 1663 1513 1124 1123 1756 1468 1510 1316 1438 1144
350 382 387 466 427 548 854 866 624 517 320 371 693 1030 1889 2649 2114 1780 1734 2035 2498 2745 2137 2077 2045 1748 1437 2013 2632 2502 3051 1940 1203 1111 1068 991 997 1004 1218 1231 1236 1222 1871
375 280 270 339 357 407 473 464 633 786 778 542 481 557 922 1782 1718 1356 1013 872 910 2368 2399 2584 2491 1269 914 987 890 845 1749 2801 2980 1000 727 999 3056 2003 1290 1090 991 1147 1348
25 10 4 45 101 152 195 250 277 372 693 776 710 543 730 1076 670 962 653 232 195 387 1925 1877 2029 1764 1623 2266 943 477 616 740 1158 2422 2484 2307 2640 2299 2690 2394 2571 2289 2085
49 81 122 212 159 304 226 160 93 94 174 339 675 954 885 887 647 448 544 302 373 427 1176 698 1009 1629 1747 2020 2014 1873 1551 1501 977 1238 1943 1700 2027 2605 3202 2821 2967 2401 2729
0 40 390 328 154 325 461 264 301 124 83 408 353 715 1131 1260 632 385 245 274 228 473 517 272 186 150 198 888 2202 2283 2163 2205 1229 1009 997 1082 1307 1161 1194 3086 1745 1258 1131
6 59 118 314 282 232 608 717 468 362 191 31 58 449 363 1059 710 520 340 370 656 631 809 862 23 0 0 0 924 2351 2512 2347 1794 1725 1438 852 839 976 848 1584 1332 1103 1370
30 25 40 163 406 499 905 474 381 318 417 429 423 420 509 542 950 318 473 598 641 479 742 600 403 5 0 0 19 1192 1527 1596 1765 2067 2925 3012 1700 1313 1331 1284 1760 1390 2567
37 11 19 39 20 98 830 664 554 433 284 451 694 405 231 896 426 289 292 331 300 516 633 748 542 27 0 0 6 49 147 327 1192 2359 2577 2680 2368 837 601 1058 2372 2053 1799
40 36 35 39 89 286 693 617 273 573 197 230 74 74 83 114 266 174 219 230 240 108 472 405 105 11 0 0 0 0 17 49 163 115 1038 1786 2665 1364 2550 2872 2341 2715 2859
75 53 50 28 37 48 56 60 51 53 43 48 54 53 25 61 141 235 245 398 246 134 112 85 115 90 85 12 4 65 58 86 89 178 682 1063 1475 2734 2223 2733 2387 1709 1633
68 44 45 101 97 68 112 59 59 159 78 103 80 92 73 69 152 96 118 283 484 283 452 425 297 187 190 90 106 179 390 1014 392 296 378 1583 2294 2370 2541 2662 2486 2084 1116
76 46 19 63 74 43 56 53 27 19 7 7 6 4 6 0 0 46 88 99 291 220 288 396 401 206 236 252 249 160 164 223 312 376 275 286 452 1885 2599 2680 2371 2076 1679
18 28 18 4 8 56 48 60 55 34 16 6 5 0 0 0 0 0 0 0 20 88 144 180 249 538 254 252 342 381 378 356 456 276 279 245 237 376 1135 1758 2415 2325 1993
3 0 0 0 35 70 46 25 24 42 65 41 6 1 0 0 0 0 0 0 0 0 39 146 191 402 562 566 355 284 398 332 293 256 201 200 196 239 623 775 1336 1775 1972
0 0 4 0 3 21 0 0 0 38 40 43 41 14 6 1 0 0 0 0 52 144 250 302 454 491 550 485 363 359 350 226 256 300 258 191 249 306 654 487 409 581 914
1 0 3 0 0 0 0 0 0 0 0 52 59 40 66 454 198 211 0 0 15 194 278 377 361 358 457 498 448 379 325 228 251 288 232 250 255 257 385 445 300 640 1051
6 0 0 0 0 0 0 0 0 0 0 0 181 109 22 176 351 718 229 312 181 159 210 221 271 408 468 481 461 451 319 308 341 357 285 306 284 393 241 252 218 322 914
0 0 0 0 0 0 0 7 4 9 37 12 25 72 12 43 277 422 355 327 312 443 213 225 254 333 516 659 544 487 378 282 321 378 426 484 414 411 310 84 147 657 891
0 0 0 0 0 0 2 11 26 65 253 127 122 221 406 61 354 571 501 344 430 425 428 425 469 481 591 664 578 474 325 210 221 224 484 461 501 339 126 51 225 1281 838
0 0 0 0 0 0 7 11 17 2 31 144 355 677 680 588 723 875 593 457 356 444 391 449 660 806 701 556 461 313 302 223 216 289 334 526 399 116 139 160 229 509 624
0 0 0 0 0 0 9 10 2 37 23 14 106 266 583 694 896 660 590 566 498 585 636 807 978 665 447 467 509 407 167 21 99 141 538 365 232 174 172 117 175 412 375
0 0 0 0 0 0 5 2 32 9 23 11 6 26 258 611 981 988 752 499 771 1165 853 758 873 865 765 655 744 520 343 192 24 10 258 534 308 129 74 104 158 144 117
CIN
-53 -54 -34 -20 -4 -71 -89 -13 -13 -18 -34 -46 -41 -10 -3 -4 0 0 0 0 0 0 0 -1 0 -1 -15 -11 0 0 0 0 0 0 0 0 -1 -1 -1 0 -1 0 -7
-1 -42 -80 -55 -14 -1 0 0 0 -3 -18 -6 -5 -19 -3 0 -7 0 0 0 0 0 0 0 0 0 0 0 -3 -23 0 0 0 0 0 0 -1 0 0 0 0 0 0
-52 -54 -30 -33 -98 -118 -114 -151 -107 -58 -5 -1 0 0 -6 -1 0 0 0 0 0 0 0 0 0 0 0 -1 0 0 0 0 0 -1 0 0 0 0 0 -1 -1 0 0
-83 -98 -86 -77 -93 -107 -80 -61 -82 -60 -38 -24 -7 -1 0 0 0 0 0 0 0 0 0 0 0 0 0 0 0 0 0 0 0 0 0 0 0 0 0 0 0 0 0
-96 -72 -39 -14 -17 -11 -1 -1 -3 -6 -48 -28 -7 -5 0 0 0 -12 -1 -12 0 0 0 0 0 -1 -3 -5 -4 0 0 0 0 0 0 0 0 0 0 0 0 0 0
-106 -97 -79 -44 -5 -5 -16 -19 -1 0 0 -1 -1 0 0 0 -22 -15 -41 -101 -99 -26 -2 0 0 -16 -32 -17 -47 -38 -5 0 0 0 0 0 0 0 0 0 0 0 0
-113 -116 -153 -94 -86 -58 -48 -63 -58 -25 0 0 0 0 0 0 -52 -46 -67 -45 -60 -152 0 -9 -4 0 -20 -3 -66 -103 -61 -35 -16 -1 0 0 -1 0 0 0 0 0 0
-112 -73 -61 -40 -37 -17 -13 -18 -57 -95 -47 -9 0 0 0 0 -5 -31 -12 -25 -14 -48 -5 -42 -3 0 0 -1 -1 -3 -11 -9 -43 -8 0 0 0 0 0 0 0 0 0
0 -102 -1 -8 -39 -6 -1 -2 -9 -12 -10 -1 -1 0 0 0 -6 -37 -46 -23 -49 -32 -37 -67 -73 -79 -54 -1 0 0 0 0 -12 -42 -40 -7 -3 -4 -4 0 0 0 0
0 -131 -48 -10 -8 -3 0 0 0 0 -4 -6 -1 -1 0 0 -1 -2 -2 0 0 -12 0 0 -208 0 0 0 -4 0 0 0 0 0 -3 -42 -22 -8 -15 -7 0 0 0
0 -147 -165 -21 0 0 0 0 0 -2 -1 0 0 -1 0 -4 0 -6 -4 -1 -1 -5 0 -1 -9 -32 0 0 -54 0 0 -2 -1 0 0 0 0 0 0 -2 0 0 -1
0 0 -30 -163 0 -51 0 0 0 -3 -7 -4 -1 -17 -47 0 -16 -14 -4 -4 -9 0 0 0 -6 -41 0 0 -4 -36 -19 -3 0 0 0 0 0 0 0 0 0 0 -1
0 0 0 0 -92 -5 0 0 -41 0 -97 -52 -111 -90 -97 -85 -35 -41 -27 -17 -25 -22 0 -2 -32 -101 0 0 0 0 -25 -5 -6 0 0 0 0 0 -1 0 -1 0 0
0 0 0 0 -1 0 0 0 -1 -2 -1 -1 0 -151 -105 -96 -62 -33 -11 -28 -36 -52 -78 -93 -36 -50 -28 -32 -4 -19 -20 -8 -6 0 0 0 0 0 0 0 0 -1 0
0 0 0 0 -7 0 -32 0 0 -25 -4 -80 -4 -121 -105 -94 -73 -81 -88 -16 0 -5 -7 -1 0 -47 -50 -41 -16 0 -1 -1 -6 -5 -3 0 0 0 0 0 0 0 0
0 0 0 0 0 0 0 0 -1 -6 -7 -12 -8 0 0 0 0 -138 -120 -97 -23 -33 -8 0 0 -46 -51 -16 -3 -9 -15 -21 -3 -8 -19 -10 -2 0 0 0 0 0 0
0 0 0 -1 0 0 0 0 0 -1 -4 -12 -7 0 0 0 0 0 0 -10 -285 -164 -134 -38 0 0 -21 -21 0 0 0 -15 -6 0 0 -16 -15 -8 0 0 0 0 0
0 0 0 0 0 0 0 0 0 0 0 0 0 0 0 0 0 0 0 0 0 -68 -299 -122 -34 -3 0 0 -4 0 0 0 0 -4 -3 -18 -34 -15 0 -1 0 0 0
0 0 0 0 0 0 0 0 0 0 0 0 0 0 0 -1 0 0 0 0 -312 -161 -90 -53 0 0 0 0 -2 -1 0 -3 -2 0 0 -10 -20 -14 0 -2 -1 0 -1
-5 0 0 0 0 0 0 0 0 0 0 -1 -27 -73 -59 -1 -1 0 0 0 -214 -112 -65 -29 -4 0 0 0 -1 -10 -10 -19 -12 -1 -1 0 -1 -4 -2 -3 -6 0 0
-9 0 0 0 0 0 0 0 0 0 0 0 -1 -24 -3 -25 0 0 0 0 -15 -43 -42 -42 -15 -1 0 -3 -3 -1 -14 -12 -5 -1 0 -1 0 0 -1 0 -4 -1 0
0 0 0 0 0 0 0 0 0 0 0 -4 0 -4 0 -5 0 0 0 -5 0 0 -5 -6 -2 -1 0 0 -5 -8 -16 -25 -4 0 -1 0 -1 0 -8 -24 -5 0 0
0 0 0 0 0 0 0 0 0 -1 0 0 0 0 0 -37 0 0 0 0 0 0 0 0 0 0 0 0 -1 -22 -29 -37 -19 -1 -2 -1 0 -12 -5 -10 0 0 -1
0 0 0 0 0 0 0 0 0 -2 0 -6 -1 0 0 0 0 0 0 0 0 0 0 0 0 0 0 -9 -15 -36 -20 -39 -11 0 -1 -12 0 -6 -1 -1 0 -4 0
0 0 0 0 0 0 0 0 -1 0 0 -1 0 -1 0 -2 -1 0 0 0 0 0 0 0 0 -4 -32 -23 -7 -6 -39 -56 -30 -1 0 0 0 -4 -1 -10 0 -8 -1
0 0 0 0 0 0 0 0 0 0 0 0 -11 -17 -1 0 0 -1 0 0 0 0 0 -3 -15 -10 -1 -6 -1 -1 -1 -3 -41 -2 -1 -6 -3 0 0 -1 0 0 0
Wind_Speed
28 28 24 20 21 21 20 19 17 12 15 16 14 12 11 11 11 16 13 10 13 15 10 14 18 14 13 10 13 13 16 20 19 19 22 19 19 15 17 19 18 17 18
34 32 27 27 25 21 21 21 20 18 16 11 8 15 15 14 15 11 13 15 14 15 17 12 15 20 15 10 17 19 20 20 19 20 21 21 22 19 18 18 16 15 15
35 30 28 28 27 27 25 nan 22 22 20 16 12 12 12 18 19 19 17 15 13 15 16 19 16 18 16 19 19 18 19 22 20 20 22 22 22 23 21 19 16 14 14
34 32 31 30 29 28 28 27 27 25 24 23 21 19 18 19 24 23 20 21 17 12 18 18 18 19 20 20 19 20 22 22 21 21 20 21 21 22 21 21 19 19 18
30 31 33 35 33 32 31 28 28 28 26 28 28 26 25 27 31 33 32 27 18 11 16 21 17 14 18 22 23 21 21 27 25 22 22 22 21 22 22 22 19 21 23
33 34 37 38 38 36 34 34 33 33 33 32 33 34 34 36 35 44 38 36 23 19 19 21 22 22 18 17 21 22 22 23 25 26 25 23 26 28 24 22 20 21 23
nan nan nan nan 38 41 42 43 42 41 40 39 36 37 37 40 43 40 32 27 18 16 13 20 18 19 27 22 19 21 21 23 21 26 23 22 27 30 26 25 23 23 23
nan nan 38 37 36 40 45 46 nan nan 46 47 46 42 40 42 48 38 33 29 24 21 21 25 23 23 21 23 24 25 22 22 21 24 22 21 23 26 26 23 19 20 21
nan nan 34 37 38 40 41 42 44 46 nan 44 47 48 47 45 51 43 36 30 24 21 25 24 22 22 25 24 23 24 24 24 28 29 28 28 28 31 29 26 19 20 20
nan nan 33 33 35 34 35 37 37 39 43 nan nan 45 43 43 45 44 41 35 29 28 28 22 nan nan nan nan 25 28 25 23 27 32 31 30 29 29 33 20 20 18 21
nan nan nan 29 27 29 32 34 38 35 35 36 36 33 38 37 37 40 38 33 31 29 30 31 30 nan nan nan nan 22 31 37 30 33 34 34 32 28 25 26 21 20 24
nan nan nan nan nan nan 33 34 34 31 31 29 29 27 26 31 29 32 37 32 27 31 31 35 35 nan nan nan nan nan 27 37 39 38 37 35 32 29 28 28 29 24 24
nan nan nan nan nan 33 30 29 30 30 27 24 nan nan nan 27 29 27 32 31 26 29 34 41 46 nan nan nan nan nan nan nan 36 38 36 35 36 34 37 37 33 30 27
nan nan nan nan nan nan nan nan nan nan nan nan nan nan nan nan 24 27 26 26 21 32 34 nan 37 nan nan nan nan nan nan nan nan 39 37 36 37 36 32 34 34 35 33
nan nan nan 34 nan nan 31 nan nan 35 nan 34 nan nan nan nan 21 nan 34 28 27 37 40 40 40 42 41 nan 42 37 39 28 27 41 42 41 41 37 33 35 32 32 31
nan nan nan nan nan nan nan nan nan nan nan nan nan nan nan nan nan nan nan nan 31 35 29 37 40 43 40 42 42 43 43 30 29 37 43 43 38 38 36 36 36 34 33
nan nan nan nan nan nan nan nan nan nan nan nan nan nan nan nan nan nan nan nan nan nan 28 28 35 40 40 40 45 44 39 34 33 35 38 42 40 41 39 38 37 37 34
nan nan nan nan nan nan nan nan nan nan nan nan nan nan nan nan nan nan nan nan nan nan nan 28 26 30 31 41 48 48 48 49 44 39 38 41 42 39 38 37 36 36 35
nan nan nan nan nan nan nan nan nan nan nan nan nan nan nan nan nan nan nan nan nan 27 27 29 29 26 29 36 47 49 50 50 45 41 38 37 36 38 32 31 33 32 31
nan nan nan nan nan nan nan nan nan nan nan nan nan nan nan 29 32 33 nan nan nan 33 31 31 33 30 28 32 42 48 51 50 48 43 42 41 38 36 39 37 42 35 32
nan nan nan nan nan nan nan nan nan nan nan nan 25 30 nan 28 28 28 30 38 38 36 35 34 33 33 30 29 33 40 47 47 46 41 39 38 35 37 38 41 42 39 35
nan nan nan nan nan nan nan nan nan nan nan nan nan nan nan nan 24 25 26 32 37 38 38 36 35 34 29 27 25 28 36 46 44 43 40 38 38 36 38 nan 42 40 39
nan nan nan nan nan nan nan nan nan nan 19 18 19 18 20 nan 22 23 27 26 29 35 36 35 33 32 33 29 27 24 29 38 43 44 43 43 38 42 43 nan 40 44 38
nan nan nan nan nan nan nan nan nan nan nan 16 14 15 17 18 18 18 22 23 24 28 31 32 31 25 31 27 27 23 22 31 40 43 44 44 41 44 42 35 31 30 31
nan nan nan nan nan nan nan nan nan nan nan nan 14 15 14 17 16 19 15 13 19 25 26 29 31 29 26 18 20 18 18 nan nan 41 41 37 38 37 33 33 36 37 40
nan nan nan nan nan nan nan nan nan nan nan nan nan nan 16 16 17 20 18 17 18 21 23 24 22 17 20 19 15 12 21 21 nan nan 31 36 41 38 nan 33 33 35 36
Wind_Direction
305 309 319 326 330 327 326 329 325 331 324 333 289 281 289 285 278 286 286 275 287 289 282 286 292 295 269 266 206 223 222 222 227 231 239 242 246 241 238 252 261 269 283
306 308 304 311 315 317 312 310 308 306 309 328 292 262 267 276 281 270 278 277 283 284 291 285 295 284 296 279 248 226 215 228 227 228 229 236 255 247 251 247 246 246 256
294 297 292 297 300 294 291 nan 285 282 286 282 270 274 257 257 264 271 265 252 255 273 275 285 286 289 292 287 284 269 251 245 246 234 235 249 252 252 257 264 261 264 273
286 288 288 288 284 280 280 282 276 274 272 268 268 262 258 260 259 258 252 262 263 265 283 280 289 295 295 294 284 281 268 257 255 242 244 253 259 259 259 258 265 283 293
279 282 283 281 280 281 281 277 274 274 270 270 266 263 265 274 273 267 294 280 248 276 282 285 284 287 294 294 283 280 267 272 263 258 255 254 260 264 266 266 274 277 285
285 282 281 284 286 288 286 285 283 279 276 274 269 264 261 266 277 295 298 307 308 338 305 292 292 293 284 285 297 283 276 273 266 260 262 264 258 258 266 265 270 273 278
nan nan nan nan 293 295 295 293 290 284 278 276 270 265 264 270 283 287 289 281 278 274 275 285 286 282 295 290 290 284 283 284 284 273 267 256 252 264 261 269 276 268 268
nan nan 278 280 283 288 294 296 nan nan 279 276 272 266 262 265 281 283 282 283 276 271 267 263 269 267 275 293 281 281 278 279 281 273 271 264 264 258 266 270 260 260 262
nan nan 286 289 298 300 298 294 289 286 nan 277 270 264 261 258 276 280 271 266 261 265 260 254 249 240 242 264 275 268 270 266 268 279 269 259 264 264 262 265 265 266 271
nan nan 285 292 296 296 298 297 290 289 288 nan nan 263 254 254 258 274 277 267 264 263 261 259 nan nan nan nan 259 245 246 255 263 260 263 258 252 256 265 266 261 266 275
nan nan nan 284 284 291 296 298 300 295 287 289 284 265 250 245 246 263 273 265 256 252 253 257 261 nan nan nan nan 237 237 230 247 254 251 249 254 260 261 266 266 263 264
nan nan nan nan nan nan 293 292 294 298 294 287 282 265 248 247 252 254 269 272 247 245 241 243 249 nan nan nan nan nan 226 234 237 247 249 251 246 250 253 257 263 261 264
nan nan nan nan nan 291 284 283 285 294 298 294 nan nan nan 245 241 263 271 273 267 243 224 232 239 nan nan nan nan nan nan nan 235 235 249 249 250 236 234 247 260 270 268
nan nan nan nan nan nan nan nan nan nan nan nan nan nan nan nan 229 220 238 258 245 238 230 nan 233 nan nan nan nan nan nan nan nan 233 232 239 248 247 252 255 259 263 263
nan nan nan 269 nan nan 277 nan nan 277 nan 282 nan nan nan nan 229 nan 224 225 234 234 228 227 230 236 232 nan 232 227 233 231 232 230 232 235 234 244 246 252 254 259 266
nan nan nan nan nan nan nan nan nan nan nan nan nan nan nan nan nan nan nan nan 225 229 228 229 228 238 235 225 228 230 223 221 215 226 226 230 235 242 240 245 252 254 258
nan nan nan nan nan nan nan nan nan nan nan nan nan nan nan nan nan nan nan nan nan nan 239 237 233 235 245 225 219 218 210 213 208 214 223 229 233 237 242 244 248 254 258
nan nan nan nan nan nan nan nan nan nan nan nan nan nan nan nan nan nan nan nan nan nan nan 246 248 243 235 231 222 217 208 207 207 212 220 225 229 230 240 243 251 258 258
nan nan nan nan nan nan nan nan nan nan nan nan nan nan nan nan nan nan nan nan nan 238 243 245 247 245 236 230 226 222 218 219 212 214 218 226 231 234 234 236 247 260 265
nan nan nan nan nan nan nan nan nan nan nan nan nan nan nan 256 257 250 nan nan nan 237 239 244 245 245 243 231 234 232 226 226 224 219 218 220 228 237 240 251 257 260 269
nan nan nan nan nan nan nan nan nan nan nan nan 258 257 nan 250 241 236 235 244 239 236 238 238 237 245 245 236 237 236 235 231 229 225 228 225 229 233 238 245 251 260 261
nan nan nan nan nan nan nan nan nan nan nan nan nan nan nan nan 237 237 235 228 228 236 232 236 236 237 242 243 235 235 238 234 231 232 230 235 235 235 243 nan 255 260 264
nan nan nan nan nan nan nan nan nan nan 290 285 279 266 253 nan 233 232 231 226 228 227 231 235 229 235 236 235 240 228 227 228 233 231 233 236 243 248 249 nan 263 261 263
nan nan nan nan nan nan nan nan nan nan nan 271 273 268 252 245 242 226 227 225 228 224 224 226 231 239 238 238 242 239 233 237 238 237 234 244 245 255 256 259 251 261 272
nan nan nan nan nan nan nan nan nan nan nan nan 229 221 239 234 227 220 217 229 235 230 224 224 225 227 225 229 242 240 244 nan nan 241 239 241 250 258 266 256 259 258 267
nan nan nan nan nan nan nan nan nan nan nan nan nan nan 220 207 202 202 195 216 227 236 229 225 238 228 229 236 252 241 245 258 nan nan 255 255 256 259 nan 270 269 250 252